Regional Weather Roundup
Issued by NWS San Diego, CA

Home | Current Version | Previous Version | Text Only | Print | Product List | Glossary On
Versions: 1 2 3 4 5 6 7 8 9 10 11 12 13 14 15 16 17 18 19 20 21 22 23 24 25 26 27 28 29 30 31 32 33 34 35 36 37 38 39 40 41 42 43 44 45 46 47 48 49 50
000
ASUS46 KSGX 220010
RWRSGX

SAN DIEGO HOURLY WEATHER ROUNDUP
NATIONAL WEATHER SERVICE SAN DIEGO CA
500 PM PDT SUN SEP 21 2014

NOTE: "FAIR" INDICATES FEW OR NO CLOUDS BELOW 12,000 FEET WITH NO
SIGNIFICANT WEATHER AND/OR OBSTRUCTIONS TO VISIBILITY.

CAZ042-043-060-061-PZZ750-775-220100-

GREATER SAN DIEGO AREA

CITY           SKY/WX    TMP DP  RH WIND       PRES   REMARKS
LINDBERGH FLD  MOSUNNY   75  61  61 NW13      29.93F
POINT LOMA       N/A     73  60  63 NW16        N/A
NATIONAL CITY    N/A     75  64  67 NW5       29.92F
CHULA VISTA      N/A     76  65  70 W9        29.86S
IMPERIAL BEACH SUNNY     75  63  66 NW14      29.93F
BROWN FIELD    SUNNY     74  62  66 W10G17    29.93S
MIRAMAR MCAS   MOSUNNY   75  59  57 NW12      29.93S
MONTGOMERY FLD SUNNY     75  60  59 NW9       29.93S

$$

NORTH SAN DIEGO COUNTY

CITY           SKY/WX    TMP DP  RH WIND       PRES   REMARKS
CAMP PENDLETON SUNNY     75  59  57 SW10      29.91F
OCEANSIDE AP   SUNNY     76  61  59 W9        29.91F
OCEANSIDE HBR    N/A     72  65  77 W12       29.94F
VISTA            N/A     75  62  64 W7        29.90F
CARLSBAD       SUNNY     73  60  63 W7        29.92F
DEL MAR          N/A     74  64  69 CALM      29.95F
LA JOLLA SCRIP   N/A     72  65  78 NW7       29.90F
FALLBROOK        N/A     77  62  58 S7        29.90F
ESCONDIDO        N/A     77  62  60 NW7       29.93F
SAN MARCOS       N/A     76  62  62 NW5       29.90F
POWAY            N/A     80  63  56 W3        29.92S

$$

EAST SAN DIEGO COUNTY

CITY           SKY/WX    TMP DP  RH WIND       PRES   REMARKS
RAMONA         SUNNY     77  58  51 W12       29.94F
SANTEE LAKES     N/A     78  63  59 W12       29.92S
LA MESA          N/A     77  64  65 N7        29.85F
JAMUL            N/A     79  61  53 W5        29.90F
MT. LAGUNA OBS   N/A     71  40  33 SW6       29.73S
CAMPO            N/A     81  51  35 SW13      29.94S

$$

ORANGE COUNTY AND THE LOS ANGELES BASIN

CITY           SKY/WX    TMP DP  RH WIND       PRES   REMARKS
JOHN WAYNE AP  SUNNY     79  60  52 W8        29.91F
LAGUNA BEACH     N/A     77  65  67 W1        29.88F
LAKE FOREST FR   N/A     80  59  49 CALM      29.81F
SANTA ANA        N/A     80  65  59 CALM      29.86F
HUNTINGTON BCH   N/A     74  65  72 W8        29.94F
LOS ALAMITOS   FAIR      79  61  53 SW10      29.91F
FULLERTON      SUNNY     82  58  43 VRB7      29.89F
LONG BEACH     SUNNY     77  61  57 NW12      29.91F
L.A. AP        MOSUNNY   72  61  68 W16       29.93F
L.A. DOWNTOWN  SUNNY     75  59  57 VRB5      29.92S

$$

THE INLAND EMPIRE

CITY           SKY/WX    TMP DP  RH WIND       PRES   REMARKS
CORONA         SUNNY     82  60  47 W13       29.91S
CHINO          SUNNY     83  56  39 W13       29.91F
ONTARIO        SUNNY     83  56  39 SW8       29.91F
SAN BERNARDINO SUNNY     84  46  26 W6        29.91F
RIVERSIDE AP   SUNNY     83  58  42 W9        29.91F
RIV CYN CREST    N/A     83  64  52 NW2       29.88F
MORENO VALLEY    N/A     86  59  39 W3        29.12S
MARCH ARB      SUNNY     83  58  42 NW9       29.93F
HORSETHIEF CYN   N/A     81  56  41 NW3       29.92F
PERRIS           N/A     83  58  43 NW6       29.89F
MENIFEE          N/A     89  61  39 S5        29.95F
HEMET EAST       N/A     86  43  21 CALM      29.90F
FRENCH VALLEY  FAIR      82  54  36 S8        29.93S
TEMECULA         N/A     81  59  46 SW5       29.87R

$$

SAN BERNARDINO AND RIVERSIDE COUNTY MOUNTAINS

CITY           SKY/WX    TMP DP  RH WIND       PRES   REMARKS
BIG BEAR AP    SUNNY     68  34  28 W10       30.21S
ANGELUS OAKS     N/A     71  44  38 CALM      29.84S
PINE COVE        N/A     66  42  41 W2        29.82S

$$

SOUTHERN DESERT INCLUDING THE COACHELLA VALLEY

CITY           SKY/WX    TMP DP  RH WIND       PRES   REMARKS
PALM SPRINGS   SUNNY     99  47  17 NW15      29.81F HX  95
THOUSAND PALMS   N/A     97  51  20 S2        29.76F
PALM DESERT      N/A    100  54  21 CALM        N/A  HX  98
THERMAL        SUNNY     99  40  13 SE8       29.75F
BLYTHE         SUNNY     99  39  12 VRB5      29.78F
IMPERIAL AP    SUNNY    100  41  13 N5        29.76F HX  95
EL CENTRO NAS  SUNNY    100  40  12 NE5       29.76F HX  95
YUMA AZ        SUNNY    100  48  17 CALM      29.77F HX  96
MEXICALI       SUNNY    100  43  14 W6        29.77  HX  96

$$

UPPER DESERT

CITY           SKY/WX    TMP DP  RH WIND       PRES   REMARKS
VICTORVILLE AP SUNNY     88  28  11 S17       29.95F
HESPERIA         N/A     82  39  22 SW10      29.97S
APPLE VALLEY     N/A     84  35  17 S5G21     30.02S
PALMDALE       SUNNY     86  45  23 W18       29.94F
LANCASTER      SUNNY     86  42  21 SW16      29.94S
EDWARDS AFB    SUNNY     91  38  15 SW8       29.90F
DAGGETT        SUNNY     94  44  17 N5        29.88F
29 PALMS N     SUNNY     93  44  18 NE5       29.94F
NEEDLES        SUNNY     99  37  11 S8        29.82F

$$

REGIONAL REPORTS

CITY           SKY/WX    TMP DP  RH WIND       PRES   REMARKS
SANTA BARBARA  SUNNY     73  59  61 W12       29.93F
SANDBERG       SUNNY     79  38  22 S13       30.09S
MT. WILSON       N/A     72  50  46 MISG        N/A
LAS VEGAS NV   MOSUNNY   92  46  20 S12       29.85F
PHOENIX AZ     MOSUNNY   97  53  22 W6        29.83F
TIJUANA        SUNNY     75  59  57 W14       29.95F

$$

OFFSHORE ISLANDS

CITY           SKY/WX    TMP DP  RH WIND       PRES   REMARKS
CATALINA ARPT  MOSUNNY   66  58  75 W12       29.97F
SAN NICOLAS IS MOSUNNY   68  56  65 W17       29.96S

$$

MARINE AND OFFSHORE BUOY REPORTS

STATION/POSITION SKY/WX   TEMP    WIND        PRES    SWELL
                          AIR SEA DIR/SP/G            HT/PER/DIR
                          (F)     (DEG/KT/KT) (MB)    (FT/S/D)
TANNER BANKS               69 71  320/ 10/ 12 1014.6F
S CLEMENTE BASIN           70 74  300/ 12/ 16 1013.5F   2/240/13
SAN NICOLAS IS.               70                N/A     3/310/13
SO. S. ROSA ISLA           66 69  310/ 16/ 17 1014.0F   3/13
W. S. BARBARA CH           64 65  320/ 17/ 19 1013.6F   5/310/13
M. S. BARBARA CH           65 68  280/ 12/ 14 1014.4
S. MONICA BASIN            69 73  270/  8/ 10 1013.6F   2/240/12
S PEDRO CHANNEL               74                N/A     2/170/12
DANA POINT                    72                N/A     2/190/14
CMP PENDLETON NS              71                N/A     2/210/13
OCEANSIDE OFFSHR              72                N/A     2/210/13
TORREY PINES OTR              72                N/A     2/200/13
LA JOLLA 1                 72 74  310/  8/ 10 1013.6S
MISSION BAY BUOY              73                N/A     2/220/13
SAN DIEGO BAY                 76              1013.9F

$$



USA.gov is the U.S. government's official web portal to all federal, state and local government web resources and services.